Wetterdaten: Donnerstag, 27.08.2015
Datum Zeit Temp. A. Feuchte A. Luftdruck Regen Wind Richtung Richtung Sonnenschein ET UV Solar Taupunkt Windchill Windben Empfang
27.08.2015 00:01 16,3 C 62 % 1016,1 hPa 0,0 l/m 0,0 km/h (0 Bft) O-NO 68 0 min 0,000 mm 0,0 UV-I 0 W/m 9,0 C 16,3 C 0,0 km/h (0 Bft) 0,00 %
27.08.2015 00:06 16,1 C 64 % 1016,0 hPa 0,0 l/m 0,0 km/h (0 Bft) O-NO 59 0 min 0,000 mm 0,0 UV-I 0 W/m 9,3 C 16,1 C 0,0 km/h (0 Bft) 0,00 %
27.08.2015 00:11 15,8 C 64 % 1016,1 hPa 0,0 l/m 0,0 km/h (0 Bft) O-NO 72 0 min 0,000 mm 0,0 UV-I 0 W/m 9,0 C 15,8 C 0,0 km/h (0 Bft) 0,00 %
27.08.2015 00:16 15,7 C 65 % 1016,1 hPa 0,0 l/m 0,0 km/h (0 Bft) NO 53 0 min 0,000 mm 0,0 UV-I 0 W/m 9,1 C 15,7 C 0,0 km/h (0 Bft) 0,00 %
27.08.2015 00:21 15,6 C 66 % 1016,1 hPa 0,0 l/m 0,0 km/h (0 Bft) NO 41 0 min 0,000 mm 0,0 UV-I 0 W/m 9,3 C 15,6 C 0,0 km/h (0 Bft) 0,00 %
27.08.2015 00:26 15,3 C 66 % 1016,0 hPa 0,0 l/m 0,0 km/h (0 Bft) NO 56 0 min 0,000 mm 0,0 UV-I 0 W/m 9,0 C 15,3 C 0,0 km/h (0 Bft) 0,00 %
27.08.2015 00:31 15,1 C 67 % 1016,1 hPa 0,0 l/m 0,0 km/h (0 Bft) O-NO 66 0 min 0,000 mm 0,0 UV-I 0 W/m 9,0 C 15,1 C 0,0 km/h (0 Bft) 0,00 %
27.08.2015 00:36 15,1 C 67 % 1016,2 hPa 0,0 l/m 0,0 km/h (0 Bft) O-NO 62 0 min 0,000 mm 0,0 UV-I 0 W/m 9,0 C 15,1 C 0,0 km/h (0 Bft) 0,00 %
27.08.2015 00:41 15,0 C 68 % 1016,1 hPa 0,0 l/m 0,0 km/h (0 Bft) O-NO 57 0 min 0,000 mm 0,0 UV-I 0 W/m 9,1 C 15,0 C 0,0 km/h (0 Bft) 0,00 %
27.08.2015 00:46 14,9 C 69 % 1016,1 hPa 0,0 l/m 0,0 km/h (0 Bft) NO 56 0 min 0,000 mm 0,0 UV-I 0 W/m 9,3 C 14,9 C 0,0 km/h (0 Bft) 0,00 %
27.08.2015 00:51 14,9 C 70 % 1015,9 hPa 0,0 l/m 0,0 km/h (0 Bft) O-NO 74 0 min 0,000 mm 0,0 UV-I 0 W/m 9,5 C 14,9 C 0,0 km/h (0 Bft) 0,00 %
27.08.2015 00:56 14,8 C 70 % 1016,1 hPa 0,0 l/m 0,0 km/h (0 Bft) O-NO 61 0 min 0,000 mm 0,0 UV-I 0 W/m 9,4 C 14,8 C 0,0 km/h (0 Bft) 0,00 %
27.08.2015 01:01 14,6 C 70 % 1016,0 hPa 0,0 l/m 0,0 km/h (0 Bft) N 353 0 min 0,000 mm 0,0 UV-I 0 W/m 9,2 C 14,6 C 0,0 km/h (0 Bft) 0,00 %
27.08.2015 01:06 14,4 C 71 % 1016,1 hPa 0,0 l/m 0,0 km/h (0 Bft) NO 51 0 min 0,000 mm 0,0 UV-I 0 W/m 9,2 C 14,4 C 0,0 km/h (0 Bft) 0,00 %
27.08.2015 01:11 14,2 C 71 % 1016,1 hPa 0,0 l/m 0,0 km/h (0 Bft) NO 48 0 min 0,000 mm 0,0 UV-I 0 W/m 9,0 C 14,2 C 0,0 km/h (0 Bft) 0,00 %
27.08.2015 01:16 14,0 C 73 % 1016,1 hPa 0,0 l/m 0,0 km/h (0 Bft) NO 48 0 min 0,000 mm 0,0 UV-I 0 W/m 9,2 C 14,0 C 0,0 km/h (0 Bft) 0,00 %
27.08.2015 01:21 13,8 C 74 % 1016,0 hPa 0,0 l/m 0,0 km/h (0 Bft) NO 49 0 min 0,000 mm 0,0 UV-I 0 W/m 9,2 C 13,8 C 0,0 km/h (0 Bft) 0,00 %
27.08.2015 01:26 13,4 C 75 % 1016,1 hPa 0,0 l/m 0,0 km/h (0 Bft) NO 47 0 min 0,000 mm 0,0 UV-I 0 W/m 9,1 C 13,4 C 0,0 km/h (0 Bft) 0,00 %
27.08.2015 01:31 13,0 C 76 % 1016,1 hPa 0,0 l/m 0,0 km/h (0 Bft) O-NO 61 0 min 0,000 mm 0,0 UV-I 0 W/m 8,9 C 13,0 C 0,0 km/h (0 Bft) 0,00 %
27.08.2015 01:36 12,8 C 77 % 1016,1 hPa 0,0 l/m 0,0 km/h (0 Bft) NO 52 0 min 0,000 mm 0,0 UV-I 0 W/m 8,9 C 12,8 C 0,0 km/h (0 Bft) 0,00 %
27.08.2015 01:41 12,7 C 78 % 1016,0 hPa 0,0 l/m 0,0 km/h (0 Bft) NO 52 0 min 0,000 mm 0,0 UV-I 0 W/m 9,0 C 12,7 C 0,0 km/h (0 Bft) 0,00 %
27.08.2015 01:46 12,5 C 78 % 1016,1 hPa 0,0 l/m 0,0 km/h (0 Bft) NO 52 0 min 0,000 mm 0,0 UV-I 0 W/m 8,8 C 12,5 C 0,0 km/h (0 Bft) 0,00 %
27.08.2015 01:51 12,4 C 79 % 1016,1 hPa 0,0 l/m 0,0 km/h (0 Bft) NO 55 0 min 0,000 mm 0,0 UV-I 0 W/m 8,9 C 12,4 C 0,0 km/h (0 Bft) 0,00 %
27.08.2015 01:56 12,3 C 80 % 1016,1 hPa 0,0 l/m 0,0 km/h (0 Bft) NO 51 0 min 0,000 mm 0,0 UV-I 0 W/m 8,9 C 12,3 C 0,0 km/h (0 Bft) 0,00 %
27.08.2015 02:01 12,2 C 80 % 1016,1 hPa 0,0 l/m 0,0 km/h (0 Bft) O-NO 59 0 min 0,000 mm 0,0 UV-I 0 W/m 8,9 C 12,2 C 0,0 km/h (0 Bft) 0,00 %
27.08.2015 02:06 12,2 C 81 % 1016,1 hPa 0,0 l/m 0,0 km/h (0 Bft) NO 56 0 min 0,000 mm 0,0 UV-I 0 W/m 9,0 C 12,2 C 0,0 km/h (0 Bft) 0,00 %
27.08.2015 02:11 12,2 C 80 % 1016,1 hPa 0,0 l/m 0,0 km/h (0 Bft) NO 46 0 min 0,000 mm 0,0 UV-I 0 W/m 8,9 C 12,2 C 0,0 km/h (0 Bft) 0,00 %
27.08.2015 02:16 12,2 C 80 % 1015,9 hPa 0,0 l/m 0,0 km/h (0 Bft) NO 43 0 min 0,000 mm 0,0 UV-I 0 W/m 8,9 C 12,2 C 0,0 km/h (0 Bft) 0,00 %
27.08.2015 02:21 12,2 C 80 % 1016,0 hPa 0,0 l/m 0,0 km/h (0 Bft) NO 46 0 min 0,000 mm 0,0 UV-I 0 W/m 8,9 C 12,2 C 0,0 km/h (0 Bft) 0,00 %
27.08.2015 02:26 12,1 C 81 % 1016,1 hPa 0,0 l/m 0,0 km/h (0 Bft) NO 44 0 min 0,000 mm 0,0 UV-I 0 W/m 8,9 C 12,1 C 0,0 km/h (0 Bft) 0,00 %
27.08.2015 02:31 12,1 C 81 % 1015,9 hPa 0,0 l/m 0,0 km/h (0 Bft) NO 46 0 min 0,000 mm 0,0 UV-I 0 W/m 8,9 C 12,1 C 0,0 km/h (0 Bft) 0,00 %
27.08.2015 02:36 12,0 C 81 % 1015,9 hPa 0,0 l/m 0,0 km/h (0 Bft) NO 53 0 min 0,000 mm 0,0 UV-I 0 W/m 8,8 C 12,0 C 0,0 km/h (0 Bft) 0,00 %
27.08.2015 02:41 11,9 C 81 % 1016,0 hPa 0,0 l/m 0,0 km/h (0 Bft) NO 38 0 min 0,000 mm 0,0 UV-I 0 W/m 8,7 C 11,9 C 0,0 km/h (0 Bft) 0,00 %
27.08.2015 02:46 11,8 C 82 % 1016,0 hPa 0,0 l/m 0,0 km/h (0 Bft) NO 44 0 min 0,000 mm 0,0 UV-I 0 W/m 8,8 C 11,8 C 0,0 km/h (0 Bft) 0,00 %
27.08.2015 02:51 11,6 C 82 % 1015,9 hPa 0,0 l/m 0,0 km/h (0 Bft) NO 36 0 min 0,000 mm 0,0 UV-I 0 W/m 8,6 C 11,6 C 0,0 km/h (0 Bft) 0,00 %
27.08.2015 02:56 11,5 C 82 % 1015,8 hPa 0,0 l/m 0,0 km/h (0 Bft) NO 45 0 min 0,000 mm 0,0 UV-I 0 W/m 8,5 C 11,5 C 0,0 km/h (0 Bft) 0,00 %
27.08.2015 03:01 11,3 C 83 % 1015,9 hPa 0,0 l/m 0,0 km/h (0 Bft) N 353 0 min 0,000 mm 0,0 UV-I 0 W/m 8,5 C 11,3 C 0,0 km/h (0 Bft) 0,00 %
27.08.2015 03:06 11,3 C 83 % 1015,8 hPa 0,0 l/m 0,0 km/h (0 Bft) NO 55 0 min 0,000 mm 0,0 UV-I 0 W/m 8,5 C 11,3 C 0,0 km/h (0 Bft) 0,00 %
27.08.2015 03:11 11,2 C 84 % 1015,9 hPa 0,0 l/m 0,0 km/h (0 Bft) NO 55 0 min 0,000 mm 0,0 UV-I 0 W/m 8,6 C 11,2 C 0,0 km/h (0 Bft) 0,00 %
27.08.2015 03:16 11,1 C 85 % 1015,9 hPa 0,0 l/m 0,0 km/h (0 Bft) NO 55 0 min 0,000 mm 0,0 UV-I 0 W/m 8,7 C 11,1 C 0,0 km/h (0 Bft) 0,00 %
27.08.2015 03:21 10,9 C 85 % 1016,0 hPa 0,0 l/m 0,0 km/h (0 Bft) NO 55 0 min 0,000 mm 0,0 UV-I 0 W/m 8,5 C 10,9 C 0,0 km/h (0 Bft) 0,00 %
27.08.2015 03:26 10,8 C 86 % 1016,0 hPa 0,0 l/m 0,0 km/h (0 Bft) NO 55 0 min 0,000 mm 0,0 UV-I 0 W/m 8,6 C 10,8 C 0,0 km/h (0 Bft) 0,00 %
27.08.2015 03:31 10,7 C 86 % 1016,0 hPa 0,0 l/m 0,0 km/h (0 Bft) NO 55 0 min 0,000 mm 0,0 UV-I 0 W/m 8,5 C 10,7 C 0,0 km/h (0 Bft) 0,00 %
27.08.2015 03:36 10,5 C 87 % 1015,8 hPa 0,0 l/m 0,0 km/h (0 Bft) NO 55 0 min 0,000 mm 0,0 UV-I 0 W/m 8,4 C 10,5 C 0,0 km/h (0 Bft) 0,00 %
27.08.2015 03:41 10,4 C 88 % 1015,9 hPa 0,0 l/m 0,0 km/h (0 Bft) NO 55 0 min 0,000 mm 0,0 UV-I 0 W/m 8,5 C 10,4 C 0,0 km/h (0 Bft) 0,00 %
27.08.2015 03:46 10,3 C 89 % 1015,9 hPa 0,0 l/m 0,0 km/h (0 Bft) NO 55 0 min 0,000 mm 0,0 UV-I 0 W/m 8,6 C 10,3 C 0,0 km/h (0 Bft) 0,00 %
27.08.2015 03:51 10,2 C 89 % 1016,1 hPa 0,0 l/m 0,0 km/h (0 Bft) NO 55 0 min 0,000 mm 0,0 UV-I 0 W/m 8,5 C 10,2 C 0,0 km/h (0 Bft) 0,00 %
27.08.2015 03:56 10,1 C 90 % 1016,2 hPa 0,0 l/m 0,0 km/h (0 Bft) NO 55 0 min 0,000 mm 0,0 UV-I 0 W/m 8,5 C 10,1 C 0,0 km/h (0 Bft) 0,00 %
27.08.2015 04:01 10,1 C 90 % 1015,9 hPa 0,0 l/m 0,0 km/h (0 Bft) O-NO 57 0 min 0,000 mm 0,0 UV-I 0 W/m 8,5 C 10,1 C 0,0 km/h (0 Bft) 0,00 %
27.08.2015 04:06 10,1 C 91 % 1016,1 hPa 0,0 l/m 0,0 km/h (0 Bft) NO 56 0 min 0,000 mm 0,0 UV-I 0 W/m 8,7 C 10,1 C 0,0 km/h (0 Bft) 0,00 %
27.08.2015 04:11 10,1 C 91 % 1016,1 hPa 0,0 l/m 0,0 km/h (0 Bft) O-NO 57 0 min 0,000 mm 0,0 UV-I 0 W/m 8,7 C 10,1 C 0,0 km/h (0 Bft) 0,00 %
27.08.2015 04:16 10,1 C 92 % 1016,0 hPa 0,0 l/m 0,0 km/h (0 Bft) NO 56 0 min 0,000 mm 0,0 UV-I 0 W/m 8,9 C 10,1 C 0,0 km/h (0 Bft) 0,00 %
27.08.2015 04:21 10,1 C 92 % 1015,9 hPa 0,0 l/m 0,0 km/h (0 Bft) O-NO 57 0 min 0,000 mm 0,0 UV-I 0 W/m 8,9 C 10,1 C 0,0 km/h (0 Bft) 0,00 %
27.08.2015 04:26 10,2 C 93 % 1015,9 hPa 0,0 l/m 0,0 km/h (0 Bft) NO 41 0 min 0,000 mm 0,0 UV-I 0 W/m 9,1 C 10,2 C 0,0 km/h (0 Bft) 0,00 %
27.08.2015 04:31 10,3 C 93 % 1015,8 hPa 0,0 l/m 0,0 km/h (0 Bft) NO 40 0 min 0,000 mm 0,0 UV-I 0 W/m 9,2 C 10,3 C 0,0 km/h (0 Bft) 0,00 %
27.08.2015 04:36 10,4 C 93 % 1015,9 hPa 0,0 l/m 0,0 km/h (0 Bft) NO 45 0 min 0,000 mm 0,0 UV-I 0 W/m 9,3 C 10,4 C 0,0 km/h (0 Bft) 0,00 %
27.08.2015 04:41 10,5 C 93 % 1016,0 hPa 0,0 l/m 0,0 km/h (0 Bft) NO 54 0 min 0,000 mm 0,0 UV-I 0 W/m 9,4 C 10,5 C 0,0 km/h (0 Bft) 0,00 %
27.08.2015 04:46 10,4 C 93 % 1015,8 hPa 0,0 l/m 0,0 km/h (0 Bft) NO 49 0 min 0,000 mm 0,0 UV-I 0 W/m 9,3 C 10,4 C 0,0 km/h (0 Bft) 0,00 %
27.08.2015 04:51 10,4 C 93 % 1016,1 hPa 0,0 l/m 0,0 km/h (0 Bft) NO 46 0 min 0,000 mm 0,0 UV-I 0 W/m 9,3 C 10,4 C 0,0 km/h (0 Bft) 0,00 %
27.08.2015 04:56 10,2 C 92 % 1016,0 hPa 0,0 l/m 0,0 km/h (0 Bft) NO 51 0 min 0,000 mm 0,0 UV-I 0 W/m 9,0 C 10,2 C 0,0 km/h (0 Bft) 0,00 %
27.08.2015 05:01 10,0 C 92 % 1016,1 hPa 0,0 l/m 0,0 km/h (0 Bft) NO 48 0 min 0,000 mm 0,0 UV-I 0 W/m 8,8 C 10,0 C 0,0 km/h (0 Bft) 0,00 %
27.08.2015 05:06 10,0 C 93 % 1016,1 hPa 0,0 l/m 0,0 km/h (0 Bft) NO 51 0 min 0,000 mm 0,0 UV-I 0 W/m 8,9 C 10,0 C 0,0 km/h (0 Bft) 0,00 %
27.08.2015 05:11 9,9 C 92 % 1016,0 hPa 0,0 l/m 0,0 km/h (0 Bft) NO 54 0 min 0,000 mm 0,0 UV-I 0 W/m 8,7 C 9,9 C 0,0 km/h (0 Bft) 0,00 %
27.08.2015 05:16 9,9 C 93 % 1016,0 hPa 0,0 l/m 0,0 km/h (0 Bft) O-NO 58 0 min 0,000 mm 0,0 UV-I 0 W/m 8,8 C 9,9 C 0,0 km/h (0 Bft) 0,00 %
27.08.2015 05:21 9,9 C 93 % 1015,9 hPa 0,0 l/m 0,0 km/h (0 Bft) O-NO 58 0 min 0,000 mm 0,0 UV-I 0 W/m 8,8 C 9,9 C 0,0 km/h (0 Bft) 0,00 %
27.08.2015 05:26 9,9 C 94 % 1016,0 hPa 0,0 l/m 0,0 km/h (0 Bft) O-NO 58 0 min 0,000 mm 0,0 UV-I 0 W/m 9,0 C 9,9 C 0,0 km/h (0 Bft) 0,00 %
27.08.2015 05:31 9,9 C 94 % 1016,1 hPa 0,0 l/m 0,0 km/h (0 Bft) O-NO 58 0 min 0,000 mm 0,0 UV-I 0 W/m 9,0 C 9,9 C 0,0 km/h (0 Bft) 0,00 %
27.08.2015 05:36 9,9 C 94 % 1016,0 hPa 0,0 l/m 0,0 km/h (0 Bft) O-NO 58 0 min 0,000 mm 0,0 UV-I 0 W/m 9,0 C 9,9 C 0,0 km/h (0 Bft) 0,00 %
27.08.2015 05:41 9,9 C 94 % 1016,2 hPa 0,0 l/m 0,0 km/h (0 Bft) O-NO 58 0 min 0,000 mm 0,0 UV-I 0 W/m 9,0 C 9,9 C 0,0 km/h (0 Bft) 0,00 %
27.08.2015 05:46 9,9 C 95 % 1016,2 hPa 0,0 l/m 0,0 km/h (0 Bft) O-NO 58 0 min 0,000 mm 0,0 UV-I 0 W/m 9,1 C 9,9 C 0,0 km/h (0 Bft) 0,00 %
27.08.2015 05:51 9,9 C 95 % 1016,1 hPa 0,0 l/m 0,0 km/h (0 Bft) O-NO 58 0 min 0,000 mm 0,0 UV-I 0 W/m 9,1 C 9,9 C 0,0 km/h (0 Bft) 0,00 %
27.08.2015 05:56 9,9 C 95 % 1016,1 hPa 0,0 l/m 0,0 km/h (0 Bft) NO 42 0 min 0,000 mm 0,0 UV-I 0 W/m 9,1 C 9,9 C 0,0 km/h (0 Bft) 0,00 %
27.08.2015 06:01 9,9 C 96 % 1016,3 hPa 0,0 l/m 0,0 km/h (0 Bft) NO 44 0 min 0,000 mm 0,0 UV-I 0 W/m 9,3 C 9,9 C 0,0 km/h (0 Bft) 0,00 %
27.08.2015 06:06 9,9 C 96 % 1016,2 hPa 0,0 l/m 0,0 km/h (0 Bft) O-NO 57 0 min 0,000 mm 0,0 UV-I 0 W/m 9,3 C 9,9 C 0,0 km/h (0 Bft) 0,00 %
27.08.2015 06:11 9,9 C 96 % 1016,3 hPa 0,0 l/m 0,0 km/h (0 Bft) O-NO 57 0 min 0,000 mm 0,0 UV-I 0 W/m 9,3 C 9,9 C 0,0 km/h (0 Bft) 0,00 %
27.08.2015 06:16 9,8 C 96 % 1016,3 hPa 0,0 l/m 0,0 km/h (0 Bft) O-NO 57 0 min 0,000 mm 0,0 UV-I 2 W/m 9,2 C 9,8 C 0,0 km/h (0 Bft) 0,00 %
27.08.2015 06:21 9,8 C 96 % 1016,4 hPa 0,0 l/m 0,0 km/h (0 Bft) NO 36 0 min 0,000 mm 0,0 UV-I 7 W/m 9,2 C 9,8 C 0,0 km/h (0 Bft) 0,00 %
27.08.2015 06:26 9,7 C 96 % 1016,4 hPa 0,0 l/m 0,0 km/h (0 Bft) NO 44 5 min 0,000 mm 0,0 UV-I 17 W/m 9,1 C 9,7 C 0,0 km/h (0 Bft) 0,00 %
27.08.2015 06:31 9,7 C 96 % 1016,4 hPa 0,0 l/m 0,0 km/h (0 Bft) NO 48 5 min 0,000 mm 0,0 UV-I 36 W/m 9,1 C 9,7 C 0,0 km/h (0 Bft) 0,00 %
27.08.2015 06:36 9,8 C 96 % 1016,5 hPa 0,0 l/m 0,0 km/h (0 Bft) NO 48 5 min 0,000 mm 0,0 UV-I 54 W/m 9,2 C 9,8 C 0,0 km/h (0 Bft) 0,00 %
27.08.2015 06:41 10,2 C 96 % 1016,6 hPa 0,0 l/m 0,0 km/h (0 Bft) NO 48 5 min 0,000 mm 0,0 UV-I 72 W/m 9,6 C 10,2 C 0,0 km/h (0 Bft) 0,00 %
27.08.2015 06:46 10,8 C 96 % 1016,5 hPa 0,0 l/m 0,0 km/h (0 Bft) NO 48 5 min 0,000 mm 0,0 UV-I 88 W/m 10,2 C 10,8 C 0,0 km/h (0 Bft) 0,00 %
27.08.2015 06:51 11,5 C 95 % 1016,6 hPa 0,0 l/m 0,0 km/h (0 Bft) NO 48 5 min 0,000 mm 0,0 UV-I 102 W/m 10,7 C 11,5 C 0,0 km/h (0 Bft) 0,00 %
27.08.2015 06:56 12,0 C 93 % 1016,7 hPa 0,0 l/m 0,0 km/h (0 Bft) N-NO 18 5 min 0,000 mm 0,0 UV-I 104 W/m 10,9 C 12,0 C 0,0 km/h (0 Bft) 0,00 %
27.08.2015 07:01 12,6 C 89 % 1016,8 hPa 0,0 l/m 0,0 km/h (0 Bft) N-NO 18 5 min 0,000 mm 0,0 UV-I 110 W/m 10,8 C 12,6 C 0,0 km/h (0 Bft) 0,00 %
27.08.2015 07:06 13,1 C 84 % 1016,7 hPa 0,0 l/m 0,0 km/h (0 Bft) NO 49 5 min 0,000 mm 0,0 UV-I 130 W/m 10,5 C 13,1 C 0,0 km/h (0 Bft) 0,00 %
27.08.2015 07:11 13,7 C 79 % 1016,7 hPa 0,0 l/m 0,0 km/h (0 Bft) NO 43 5 min 0,000 mm 0,0 UV-I 135 W/m 10,1 C 13,7 C 0,0 km/h (0 Bft) 0,00 %
27.08.2015 07:16 14,1 C 75 % 1016,7 hPa 0,0 l/m 0,0 km/h (0 Bft) NO 44 5 min 0,000 mm 0,0 UV-I 138 W/m 9,7 C 14,1 C 0,0 km/h (0 Bft) 0,00 %
27.08.2015 07:21 14,6 C 73 % 1016,8 hPa 0,0 l/m 0,0 km/h (0 Bft) N-NO 24 5 min 0,000 mm 0,0 UV-I 139 W/m 9,8 C 14,6 C 0,0 km/h (0 Bft) 0,00 %
27.08.2015 07:26 15,1 C 71 % 1016,9 hPa 0,0 l/m 0,0 km/h (0 Bft) N-NW 347 5 min 0,000 mm 0,0 UV-I 139 W/m 9,9 C 15,1 C 0,0 km/h (0 Bft) 0,00 %
27.08.2015 07:31 15,5 C 69 % 1016,9 hPa 0,0 l/m 0,0 km/h (0 Bft) NO 35 5 min 0,000 mm 1,0 UV-I 138 W/m 9,8 C 15,5 C 0,0 km/h (0 Bft) 0,00 %
27.08.2015 07:36 16,0 C 67 % 1016,9 hPa 0,0 l/m 0,0 km/h (0 Bft) NO 38 5 min 0,000 mm 1,0 UV-I 134 W/m 9,9 C 16,0 C 0,0 km/h (0 Bft) 0,00 %
27.08.2015 07:41 16,6 C 64 % 1016,9 hPa 0,0 l/m 0,0 km/h (0 Bft) NO 38 0 min 0,000 mm 1,0 UV-I 123 W/m 9,8 C 16,6 C 0,0 km/h (0 Bft) 0,00 %
27.08.2015 07:46 17,1 C 63 % 1016,9 hPa 0,0 l/m 0,0 km/h (0 Bft) NO 38 0 min 0,000 mm 1,0 UV-I 122 W/m 10,0 C 17,1 C 0,0 km/h (0 Bft) 0,00 %
27.08.2015 07:51 17,4 C 65 % 1017,1 hPa 0,0 l/m 0,0 km/h (0 Bft) NO 38 0 min 0,000 mm 1,0 UV-I 116 W/m 10,8 C 17,4 C 0,0 km/h (0 Bft) 0,00 %
27.08.2015 07:56 17,7 C 62 % 1017,0 hPa 0,0 l/m 0,0 km/h (0 Bft) NO 38 0 min 0,000 mm 1,0 UV-I 132 W/m 10,3 C 17,7 C 0,0 km/h (0 Bft) 0,00 %
27.08.2015 08:01 18,0 C 61 % 1017,3 hPa 0,0 l/m 0,0 km/h (0 Bft) N-NO 32 0 min 0,000 mm 1,0 UV-I 132 W/m 10,4 C 18,0 C 0,0 km/h (0 Bft) 0,00 %
27.08.2015 08:06 18,4 C 60 % 1017,2 hPa 0,0 l/m 0,0 km/h (0 Bft) N 4 0 min 0,000 mm 1,0 UV-I 130 W/m 10,5 C 18,4 C 0,0 km/h (0 Bft) 0,00 %
27.08.2015 08:11 18,7 C 58 % 1017,0 hPa 0,0 l/m 0,0 km/h (0 Bft) NO 42 0 min 0,000 mm 1,0 UV-I 129 W/m 10,3 C 18,7 C 0,0 km/h (0 Bft) 0,00 %
27.08.2015 08:16 19,0 C 57 % 1017,0 hPa 0,0 l/m 0,0 km/h (0 Bft) NO 53 0 min 0,000 mm 1,0 UV-I 126 W/m 10,3 C 19,0 C 0,0 km/h (0 Bft) 0,00 %
27.08.2015 08:21 19,1 C 58 % 1017,0 hPa 0,0 l/m 0,0 km/h (0 Bft) NO 36 0 min 0,000 mm 1,0 UV-I 150 W/m 10,6 C 19,1 C 0,0 km/h (0 Bft) 0,00 %
27.08.2015 08:26 19,3 C 57 % 1017,0 hPa 0,0 l/m 0,0 km/h (0 Bft) N-NO 33 0 min 0,000 mm 1,0 UV-I 164 W/m 10,6 C 19,3 C 0,0 km/h (0 Bft) 0,00 %
27.08.2015 08:31 19,7 C 55 % 1016,9 hPa 0,0 l/m 0,0 km/h (0 Bft) NO 42 0 min 0,000 mm 1,0 UV-I 174 W/m 10,4 C 19,7 C 0,0 km/h (0 Bft) 0,00 %
27.08.2015 08:36 20,2 C 52 % 1017,1 hPa 0,0 l/m 0,0 km/h (0 Bft) NO 45 0 min 0,000 mm 1,0 UV-I 185 W/m 10,0 C 20,2 C 0,0 km/h (0 Bft) 0,00 %
27.08.2015 08:41 20,7 C 50 % 1017,1 hPa 0,0 l/m 0,0 km/h (0 Bft) NO 53 0 min 0,000 mm 1,0 UV-I 195 W/m 9,9 C 20,7 C 0,0 km/h (0 Bft) 0,00 %
27.08.2015 08:46 21,1 C 49 % 1017,0 hPa 0,0 l/m 0,0 km/h (0 Bft) NO 52 0 min 0,000 mm 1,0 UV-I 205 W/m 10,0 C 21,1 C 0,0 km/h (0 Bft) 0,00 %
27.08.2015 08:51 21,5 C 49 % 1017,1 hPa 0,0 l/m 0,0 km/h (0 Bft) NO 36 0 min 0,000 mm 1,0 UV-I 215 W/m 10,3 C 21,5 C 0,0 km/h (0 Bft) 0,00 %
27.08.2015 08:56 21,7 C 49 % 1017,2 hPa 0,0 l/m 0,0 km/h (0 Bft) O 93 0 min 0,000 mm 1,0 UV-I 217 W/m 10,5 C 21,7 C 0,0 km/h (0 Bft) 0,00 %
27.08.2015 09:01 21,9 C 48 % 1017,0 hPa 0,0 l/m 0,0 km/h (0 Bft) NO 47 0 min 0,000 mm 1,0 UV-I 236 W/m 10,4 C 21,9 C 0,0 km/h (0 Bft) 0,00 %
27.08.2015 09:06 22,0 C 48 % 1017,1 hPa 0,0 l/m 0,0 km/h (0 Bft) O 79 0 min 0,000 mm 1,0 UV-I 248 W/m 10,5 C 22,0 C 0,0 km/h (0 Bft) 0,00 %
27.08.2015 09:11 22,1 C 48 % 1017,2 hPa 0,0 l/m 0,0 km/h (0 Bft) NO 40 5 min 0,000 mm 1,0 UV-I 260 W/m 10,6 C 22,1 C 0,0 km/h (0 Bft) 0,00 %
27.08.2015 09:16 22,3 C 47 % 1017,2 hPa 0,0 l/m 0,0 km/h (0 Bft) NO 44 0 min 0,000 mm 1,0 UV-I 240 W/m 10,4 C 22,3 C 0,0 km/h (0 Bft) 0,00 %
27.08.2015 09:21 22,5 C 47 % 1017,4 hPa 0,0 l/m 0,0 km/h (0 Bft) N-NW 348 0 min 0,000 mm 1,0 UV-I 270 W/m 10,6 C 22,5 C 0,0 km/h (0 Bft) 0,00 %
27.08.2015 09:26 22,5 C 48 % 1017,4 hPa 0,0 l/m 1,8 km/h (1 Bft) O-NO 58 5 min 0,000 mm 1,0 UV-I 287 W/m 10,9 C 22,5 C 4,0 km/h (1 Bft) 0,00 %
27.08.2015 09:31 22,4 C 49 % 1017,4 hPa 0,0 l/m 0,0 km/h (0 Bft) NO 51 5 min 0,000 mm 2,0 UV-I 317 W/m 11,2 C 22,4 C 0,0 km/h (0 Bft) 0,00 %
27.08.2015 09:36 22,6 C 46 % 1017,3 hPa 0,0 l/m 0,0 km/h (0 Bft) NO 41 5 min 0,000 mm 2,0 UV-I 331 W/m 10,4 C 22,6 C 0,0 km/h (0 Bft) 0,00 %
27.08.2015 09:41 23,1 C 45 % 1017,3 hPa 0,0 l/m 0,0 km/h (0 Bft) NO 44 5 min 0,000 mm 1,0 UV-I 304 W/m 10,5 C 23,1 C 0,0 km/h (0 Bft) 0,00 %
27.08.2015 09:46 23,4 C 45 % 1017,4 hPa 0,0 l/m 0,0 km/h (0 Bft) N-NO 21 5 min 0,000 mm 2,0 UV-I 368 W/m 10,8 C 23,4 C 0,0 km/h (0 Bft) 0,00 %
27.08.2015 09:51 23,5 C 45 % 1017,3 hPa 0,0 l/m 0,0 km/h (0 Bft) O-SO 113 0 min 0,000 mm 1,0 UV-I 168 W/m 10,9 C 23,5 C 0,0 km/h (0 Bft) 0,00 %
27.08.2015 09:56 23,3 C 47 % 1017,3 hPa 0,0 l/m 0,0 km/h (0 Bft) NO 37 0 min 0,000 mm 1,0 UV-I 169 W/m 11,3 C 23,3 C 0,0 km/h (0 Bft) 0,00 %
27.08.2015 10:01 23,0 C 47 % 1017,4 hPa 0,0 l/m 0,0 km/h (0 Bft) NO 42 5 min 0,000 mm 2,0 UV-I 333 W/m 11,1 C 23,0 C 0,0 km/h (0 Bft) 0,00 %
27.08.2015 10:06 22,9 C 46 % 1017,4 hPa 0,0 l/m 0,0 km/h (0 Bft) NO 54 5 min 0,000 mm 2,0 UV-I 372 W/m 10,7 C 22,9 C 0,0 km/h (0 Bft) 0,00 %
27.08.2015 10:11 23,1 C 47 % 1017,4 hPa 0,0 l/m 0,0 km/h (0 Bft) NO 49 5 min 0,000 mm 2,0 UV-I 434 W/m 11,2 C 23,1 C 0,0 km/h (0 Bft) 0,00 %
27.08.2015 10:16 23,4 C 44 % 1017,4 hPa 0,0 l/m 0,0 km/h (0 Bft) NO 44 5 min 0,000 mm 2,0 UV-I 474 W/m 10,4 C 23,4 C 0,0 km/h (0 Bft) 0,00 %
27.08.2015 10:21 24,0 C 43 % 1017,4 hPa 0,0 l/m 1,4 km/h (1 Bft) NO 55 5 min 0,000 mm 2,0 UV-I 490 W/m 10,6 C 24,0 C 4,0 km/h (1 Bft) 0,00 %
27.08.2015 10:26 24,6 C 41 % 1017,4 hPa 0,0 l/m 0,0 km/h (0 Bft) N-NO 30 0 min 0,000 mm 1,0 UV-I 254 W/m 10,5 C 24,6 C 0,0 km/h (0 Bft) 0,00 %
27.08.2015 10:31 24,9 C 42 % 1017,6 hPa 0,0 l/m 0,0 km/h (0 Bft) O-NO 60 0 min 0,000 mm 2,0 UV-I 298 W/m 11,1 C 24,9 C 0,0 km/h (0 Bft) 0,00 %
27.08.2015 10:36 24,7 C 43 % 1017,6 hPa 0,0 l/m 0,0 km/h (0 Bft) NO 42 0 min 0,000 mm 2,0 UV-I 304 W/m 11,3 C 24,7 C 0,0 km/h (0 Bft) 0,00 %
27.08.2015 10:41 24,4 C 43 % 1017,4 hPa 0,0 l/m 0,0 km/h (0 Bft) N-NO 29 5 min 0,000 mm 2,0 UV-I 519 W/m 11,0 C 24,4 C 0,0 km/h (0 Bft) 0,00 %
27.08.2015 10:46 24,8 C 40 % 1017,6 hPa 0,0 l/m 0,0 km/h (0 Bft) NO 39 5 min 0,000 mm 2,0 UV-I 526 W/m 10,3 C 24,8 C 0,0 km/h (0 Bft) 0,00 %
27.08.2015 10:51 25,2 C 41 % 1017,5 hPa 0,0 l/m 0,0 km/h (0 Bft) N-NO 31 0 min 0,000 mm 2,0 UV-I 334 W/m 11,0 C 25,2 C 0,0 km/h (0 Bft) 0,00 %
27.08.2015 10:56 25,3 C 41 % 1017,4 hPa 0,0 l/m 0,0 km/h (0 Bft) NO 53 0 min 0,000 mm 2,0 UV-I 338 W/m 11,1 C 25,3 C 0,0 km/h (0 Bft) 0,00 %
27.08.2015 11:01 25,4 C 40 % 1017,4 hPa 0,0 l/m 0,0 km/h (0 Bft) O-NO 58 5 min 0,000 mm 3,0 UV-I 567 W/m 10,8 C 25,4 C 0,0 km/h (0 Bft) 0,00 %
27.08.2015 11:06 25,7 C 39 % 1017,3 hPa 0,0 l/m 0,0 km/h (0 Bft) N 352 5 min 0,000 mm 3,0 UV-I 600 W/m 10,7 C 25,7 C 0,0 km/h (0 Bft) 0,00 %
27.08.2015 11:11 26,2 C 38 % 1017,3 hPa 0,0 l/m 0,4 km/h (0 Bft) O-SO 102 5 min 0,000 mm 3,0 UV-I 610 W/m 10,7 C 26,2 C 4,0 km/h (1 Bft) 0,00 %
27.08.2015 11:16 26,6 C 39 % 1017,4 hPa 0,0 l/m 0,4 km/h (0 Bft) O-NO 64 5 min 0,000 mm 3,0 UV-I 647 W/m 11,5 C 26,6 C 4,0 km/h (1 Bft) 0,00 %
27.08.2015 11:21 27,0 C 38 % 1017,3 hPa 0,0 l/m 0,0 km/h (0 Bft) N 353 5 min 0,000 mm 3,0 UV-I 615 W/m 11,5 C 27,0 C 0,0 km/h (0 Bft) 0,00 %
27.08.2015 11:26 27,3 C 37 % 1017,0 hPa 0,0 l/m 0,0 km/h (0 Bft) N-NW 332 5 min 0,000 mm 3,0 UV-I 665 W/m 11,3 C 27,3 C 0,0 km/h (0 Bft) 0,00 %
27.08.2015 11:31 27,6 C 37 % 1017,2 hPa 0,0 l/m 2,9 km/h (1 Bft) O 99 5 min 0,000 mm 3,0 UV-I 679 W/m 11,6 C 27,6 C 4,0 km/h (1 Bft) 0,00 %
27.08.2015 11:37 27,7 C 36 % 1017,1 hPa 0,0 l/m 2,2 km/h (1 Bft) O 85 6 min 0,000 mm 3,0 UV-I 640 W/m 11,3 C 27,7 C 4,0 km/h (1 Bft) 0,00 %
27.08.2015 11:42 27,9 C 36 % 1016,9 hPa 0,0 l/m 0,0 km/h (0 Bft) N-NW 345 5 min 0,000 mm 3,0 UV-I 722 W/m 11,4 C 27,9 C 0,0 km/h (0 Bft) 0,00 %
27.08.2015 11:47 28,0 C 40 % 1017,1 hPa 0,0 l/m 0,0 km/h (0 Bft) N-NW 344 5 min 0,000 mm 3,0 UV-I 625 W/m 13,1 C 28,0 C 0,0 km/h (0 Bft) 0,00 %
27.08.2015 11:52 27,8 C 39 % 1017,0 hPa 0,0 l/m 0,4 km/h (0 Bft) NO 42 5 min 0,000 mm 3,0 UV-I 702 W/m 12,6 C 27,8 C 4,0 km/h (1 Bft) 0,00 %
27.08.2015 11:57 27,4 C 39 % 1016,8 hPa 0,0 l/m 0,0 km/h (0 Bft) O-NO 71 5 min 0,000 mm 3,0 UV-I 623 W/m 12,2 C 27,4 C 0,0 km/h (0 Bft) 0,00 %
27.08.2015 12:02 27,3 C 38 % 1016,7 hPa 0,0 l/m 0,0 km/h (0 Bft) NO 48 5 min 0,000 mm 3,0 UV-I 763 W/m 11,7 C 27,3 C 0,0 km/h (0 Bft) 0,00 %
27.08.2015 12:07 27,4 C 38 % 1016,7 hPa 0,0 l/m 7,2 km/h (2 Bft) SO 137 5 min 0,000 mm 3,0 UV-I 817 W/m 11,8 C 27,3 C 7,9 km/h (2 Bft) 0,00 %
27.08.2015 12:12 27,8 C 37 % 1016,5 hPa 0,0 l/m 0,0 km/h (0 Bft) N-NO 14 5 min 0,000 mm 4,0 UV-I 832 W/m 11,8 C 27,8 C 0,0 km/h (0 Bft) 0,00 %
27.08.2015 12:17 28,2 C 36 % 1016,5 hPa 0,0 l/m 0,0 km/h (0 Bft) O 96 5 min 0,000 mm 3,0 UV-I 786 W/m 11,7 C 28,2 C 0,0 km/h (0 Bft) 0,00 %
27.08.2015 12:22 28,3 C 35 % 1016,4 hPa 0,0 l/m 0,0 km/h (0 Bft) N-NO 25 5 min 0,000 mm 3,0 UV-I 767 W/m 11,4 C 28,3 C 0,0 km/h (0 Bft) 0,00 %
27.08.2015 12:27 28,2 C 35 % 1016,1 hPa 0,0 l/m 0,0 km/h (0 Bft) W-NW 282 5 min 0,000 mm 4,0 UV-I 792 W/m 11,3 C 28,2 C 0,0 km/h (0 Bft) 0,00 %
27.08.2015 12:32 28,1 C 39 % 1016,1 hPa 0,0 l/m 0,0 km/h (0 Bft) NO 50 5 min 0,000 mm 4,0 UV-I 818 W/m 12,8 C 28,1 C 0,0 km/h (0 Bft) 0,00 %
27.08.2015 12:37 28,1 C 36 % 1016,0 hPa 0,0 l/m 0,0 km/h (0 Bft) N 351 5 min 0,000 mm 4,0 UV-I 812 W/m 11,6 C 28,1 C 0,0 km/h (0 Bft) 0,00 %
27.08.2015 12:42 28,2 C 35 % 1015,7 hPa 0,0 l/m 0,0 km/h (0 Bft) O-NO 64 5 min 0,000 mm 4,0 UV-I 818 W/m 11,3 C 28,2 C 0,0 km/h (0 Bft) 0,00 %
27.08.2015 12:47 28,3 C 33 % 1015,7 hPa 0,0 l/m 0,0 km/h (0 Bft) NO 35 5 min 0,000 mm 4,0 UV-I 819 W/m 10,5 C 28,3 C 0,0 km/h (0 Bft) 0,00 %
27.08.2015 12:52 28,4 C 33 % 1015,8 hPa 0,0 l/m 0,7 km/h (0 Bft) O-NO 77 5 min 0,000 mm 4,0 UV-I 823 W/m 10,6 C 28,4 C 4,0 km/h (1 Bft) 0,00 %
27.08.2015 12:57 28,4 C 31 % 1015,7 hPa 0,0 l/m 0,0 km/h (0 Bft) O-NO 57 5 min 0,000 mm 4,0 UV-I 834 W/m 9,6 C 28,4 C 0,0 km/h (0 Bft) 0,00 %
27.08.2015 13:02 28,6 C 33 % 1015,6 hPa 0,0 l/m 0,7 km/h (0 Bft) N-NW 347 5 min 0,000 mm 4,0 UV-I 846 W/m 10,7 C 28,6 C 4,0 km/h (1 Bft) 0,00 %
27.08.2015 13:07 28,8 C 32 % 1015,0 hPa 0,0 l/m 0,4 km/h (0 Bft) O 89 5 min 0,000 mm 4,0 UV-I 849 W/m 10,4 C 28,8 C 4,0 km/h (1 Bft) 0,00 %
27.08.2015 13:12 28,8 C 33 % 1014,9 hPa 0,0 l/m 4,7 km/h (1 Bft) O-SO 105 5 min 0,000 mm 4,0 UV-I 840 W/m 10,9 C 28,8 C 7,9 km/h (2 Bft) 0,00 %
27.08.2015 13:17 28,7 C 33 % 1015,0 hPa 0,0 l/m 0,7 km/h (0 Bft) NO 55 5 min 0,000 mm 4,0 UV-I 857 W/m 10,8 C 28,7 C 4,0 km/h (1 Bft) 0,00 %
27.08.2015 13:22 28,8 C 33 % 1015,1 hPa 0,0 l/m 2,2 km/h (1 Bft) O 86 5 min 0,000 mm 4,0 UV-I 858 W/m 10,9 C 28,8 C 4,0 km/h (1 Bft) 0,00 %
27.08.2015 13:27 28,8 C 33 % 1015,0 hPa 0,0 l/m 0,4 km/h (0 Bft) O 89 5 min 0,000 mm 4,0 UV-I 896 W/m 10,9 C 28,8 C 4,0 km/h (1 Bft) 0,00 %
27.08.2015 13:32 28,9 C 31 % 1015,1 hPa 0,0 l/m 8,3 km/h (2 Bft) O-NO 68 5 min 0,000 mm 3,0 UV-I 749 W/m 10,1 C 28,7 C 11,9 km/h (2 Bft) 0,00 %
27.08.2015 13:37 28,9 C 31 % 1014,9 hPa 0,0 l/m 0,0 km/h (0 Bft) SO 131 5 min 0,000 mm 3,0 UV-I 764 W/m 10,1 C 28,9 C 0,0 km/h (0 Bft) 0,00 %
27.08.2015 13:42 28,9 C 31 % 1015,0 hPa 0,0 l/m 4,3 km/h (1 Bft) NO 53 5 min 0,000 mm 4,0 UV-I 864 W/m 10,1 C 28,9 C 7,9 km/h (2 Bft) 0,00 %
27.08.2015 13:47 29,0 C 30 % 1014,6 hPa 0,0 l/m 0,4 km/h (0 Bft) N-NO 33 5 min 0,000 mm 3,0 UV-I 759 W/m 9,6 C 29,0 C 4,0 km/h (1 Bft) 0,00 %
27.08.2015 13:52 29,1 C 26 % 1015,0 hPa 0,0 l/m 1,4 km/h (1 Bft) S 181 5 min 0,000 mm 3,0 UV-I 670 W/m 7,6 C 29,1 C 4,0 km/h (1 Bft) 0,00 %
27.08.2015 13:57 29,1 C 30 % 1014,6 hPa 0,0 l/m 7,2 km/h (2 Bft) O-SO 103 5 min 0,000 mm 3,0 UV-I 663 W/m 9,7 C 29,0 C 11,9 km/h (2 Bft) 0,00 %
27.08.2015 14:02 29,0 C 30 % 1014,6 hPa 0,0 l/m 0,7 km/h (0 Bft) O 90 5 min 0,000 mm 3,0 UV-I 814 W/m 9,6 C 29,0 C 4,0 km/h (1 Bft) 0,00 %
27.08.2015 14:07 29,0 C 30 % 1014,3 hPa 0,0 l/m 2,2 km/h (1 Bft) O-NO 58 5 min 0,000 mm 3,0 UV-I 880 W/m 9,6 C 29,0 C 4,0 km/h (1 Bft) 0,00 %
27.08.2015 14:12 29,1 C 30 % 1014,3 hPa 0,0 l/m 7,2 km/h (2 Bft) O 100 5 min 0,000 mm 3,0 UV-I 908 W/m 9,7 C 29,0 C 7,9 km/h (2 Bft) 0,00 %
27.08.2015 14:17 29,3 C 30 % 1014,4 hPa 0,0 l/m 2,9 km/h (1 Bft) S 172 5 min 0,000 mm 3,0 UV-I 871 W/m 9,9 C 29,3 C 7,9 km/h (2 Bft) 0,00 %
27.08.2015 14:22 29,4 C 29 % 1014,3 hPa 0,0 l/m 1,8 km/h (1 Bft) O-SO 107 0 min 0,000 mm 2,0 UV-I 281 W/m 9,5 C 29,4 C 4,0 km/h (1 Bft) 0,00 %
27.08.2015 14:27 29,3 C 29 % 1014,2 hPa 0,0 l/m 0,7 km/h (0 Bft) O-NO 59 5 min 0,000 mm 3,0 UV-I 766 W/m 9,4 C 29,3 C 4,0 km/h (1 Bft) 0,00 %
27.08.2015 14:32 29,3 C 30 % 1014,1 hPa 0,0 l/m 1,8 km/h (1 Bft) O 88 5 min 0,000 mm 3,0 UV-I 804 W/m 9,9 C 29,3 C 4,0 km/h (1 Bft) 0,00 %
27.08.2015 14:37 29,5 C 27 % 1014,1 hPa 0,0 l/m 8,3 km/h (2 Bft) O-NO 78 5 min 0,000 mm 3,0 UV-I 892 W/m 8,5 C 29,3 C 15,8 km/h (3 Bft) 0,00 %
27.08.2015 14:42 29,7 C 28 % 1014,0 hPa 0,0 l/m 2,2 km/h (1 Bft) O-SO 108 5 min 0,000 mm 3,0 UV-I 881 W/m 9,2 C 29,7 C 4,0 km/h (1 Bft) 0,00 %
27.08.2015 14:47 29,8 C 28 % 1013,9 hPa 0,0 l/m 3,2 km/h (1 Bft) O 100 5 min 0,000 mm 3,0 UV-I 893 W/m 9,3 C 29,8 C 7,9 km/h (2 Bft) 0,00 %
27.08.2015 14:52 29,9 C 29 % 1013,8 hPa 0,0 l/m 2,2 km/h (1 Bft) NO 36 5 min 0,000 mm 3,0 UV-I 883 W/m 9,9 C 29,9 C 7,9 km/h (2 Bft) 0,00 %
27.08.2015 14:57 30,0 C 28 % 1013,8 hPa 0,0 l/m 6,8 km/h (2 Bft) NO 49 5 min 0,000 mm 3,0 UV-I 867 W/m 9,5 C 30,0 C 11,9 km/h (2 Bft) 0,00 %
27.08.2015 15:02 30,1 C 29 % 1013,8 hPa 0,0 l/m 0,0 km/h (0 Bft) O-SO 120 5 min 0,000 mm 3,0 UV-I 857 W/m 10,1 C 30,1 C 0,0 km/h (0 Bft) 0,00 %
27.08.2015 15:07 30,3 C 26 % 1013,9 hPa 0,0 l/m 4,3 km/h (1 Bft) O-NO 66 5 min 0,000 mm 3,0 UV-I 865 W/m 8,6 C 30,3 C 7,9 km/h (2 Bft) 0,00 %
27.08.2015 15:12 30,5 C 25 % 1013,6 hPa 0,0 l/m 0,7 km/h (0 Bft) O-SO 117 5 min 0,000 mm 2,0 UV-I 892 W/m 8,2 C 30,5 C 4,0 km/h (1 Bft) 0,00 %
27.08.2015 15:17 30,6 C 25 % 1013,5 hPa 0,0 l/m 0,0 km/h (0 Bft) O-NO 68 5 min 0,000 mm 1,0 UV-I 890 W/m 8,3 C 30,6 C 0,0 km/h (0 Bft) 0,00 %
27.08.2015 15:22 30,6 C 24 % 1013,5 hPa 0,0 l/m 0,0 km/h (0 Bft) N 354 5 min 0,000 mm 1,0 UV-I 890 W/m 7,7 C 30,6 C 0,0 km/h (0 Bft) 0,00 %
27.08.2015 15:27 30,6 C 25 % 1013,4 hPa 0,0 l/m 11,9 km/h (2 Bft) SO 142 5 min 0,000 mm 1,0 UV-I 887 W/m 8,3 C 30,2 C 15,8 km/h (3 Bft) 0,00 %
27.08.2015 15:32 30,5 C 24 % 1013,3 hPa 0,0 l/m 4,0 km/h (1 Bft) N-NO 27 5 min 0,000 mm 1,0 UV-I 875 W/m 7,6 C 30,5 C 7,9 km/h (2 Bft) 0,00 %
27.08.2015 15:37 30,6 C 24 % 1013,3 hPa 0,0 l/m 7,9 km/h (2 Bft) O-SO 123 5 min 0,000 mm 1,0 UV-I 884 W/m 7,7 C 30,5 C 11,9 km/h (2 Bft) 0,00 %
27.08.2015 15:42 30,7 C 24 % 1013,4 hPa 0,0 l/m 9,7 km/h (2 Bft) N-NO 31 5 min 0,000 mm 1,0 UV-I 874 W/m 7,8 C 30,5 C 15,8 km/h (3 Bft) 0,00 %
27.08.2015 15:47 30,5 C 25 % 1013,4 hPa 0,0 l/m 4,3 km/h (1 Bft) O-NO 58 5 min 0,000 mm 1,0 UV-I 873 W/m 8,2 C 30,5 C 7,9 km/h (2 Bft) 0,00 %
27.08.2015 15:52 30,5 C 26 % 1013,3 hPa 0,0 l/m 3,2 km/h (1 Bft) N-NO 12 5 min 0,000 mm 1,0 UV-I 870 W/m 8,8 C 30,5 C 4,0 km/h (1 Bft) 0,00 %
27.08.2015 15:57 30,5 C 26 % 1013,3 hPa 0,0 l/m 0,0 km/h (0 Bft) N-NO 30 5 min 0,000 mm 1,0 UV-I 867 W/m 8,8 C 30,5 C 0,0 km/h (0 Bft) 0,00 %
27.08.2015 16:02 30,5 C 27 % 1013,3 hPa 0,0 l/m 4,0 km/h (1 Bft) O-NO 75 5 min 0,000 mm 1,0 UV-I 861 W/m 9,4 C 30,5 C 7,9 km/h (2 Bft) 0,00 %
27.08.2015 16:07 30,4 C 29 % 1013,5 hPa 0,0 l/m 0,0 km/h (0 Bft) NO 43 5 min 0,000 mm 1,0 UV-I 856 W/m 10,3 C 30,4 C 0,0 km/h (0 Bft) 0,00 %
27.08.2015 16:12 30,3 C 28 % 1013,2 hPa 0,0 l/m 1,8 km/h (1 Bft) N 350 5 min 0,000 mm 1,0 UV-I 847 W/m 9,7 C 30,3 C 4,0 km/h (1 Bft) 0,00 %
27.08.2015 16:17 30,3 C 29 % 1013,3 hPa 0,0 l/m 7,9 km/h (2 Bft) SO 141 5 min 0,000 mm 1,0 UV-I 844 W/m 10,3 C 30,2 C 11,9 km/h (2 Bft) 0,00 %
27.08.2015 16:22 30,2 C 29 % 1013,2 hPa 0,0 l/m 4,0 km/h (1 Bft) NO 53 5 min 0,000 mm 1,0 UV-I 833 W/m 10,2 C 30,2 C 4,0 km/h (1 Bft) 0,00 %
27.08.2015 16:27 30,0 C 29 % 1013,1 hPa 0,0 l/m 1,4 km/h (1 Bft) NO 36 5 min 0,000 mm 1,0 UV-I 756 W/m 10,0 C 30,0 C 4,0 km/h (1 Bft) 0,00 %
27.08.2015 16:32 29,9 C 30 % 1013,0 hPa 0,0 l/m 2,9 km/h (1 Bft) O-NO 76 5 min 0,000 mm 1,0 UV-I 320 W/m 10,4 C 29,9 C 4,0 km/h (1 Bft) 0,00 %
27.08.2015 16:37 29,9 C 30 % 1013,0 hPa 0,0 l/m 4,7 km/h (1 Bft) O 97 0 min 0,000 mm 1,0 UV-I 152 W/m 10,4 C 29,9 C 7,9 km/h (2 Bft) 0,00 %
27.08.2015 16:42 29,9 C 29 % 1012,9 hPa 0,0 l/m 5,4 km/h (1 Bft) O-SO 102 0 min 0,000 mm 1,0 UV-I 164 W/m 9,9 C 29,9 C 7,9 km/h (2 Bft) 0,00 %
27.08.2015 16:47 29,9 C 29 % 1013,0 hPa 0,0 l/m 3,2 km/h (1 Bft) NO 43 0 min 0,000 mm 1,0 UV-I 176 W/m 9,9 C 29,9 C 4,0 km/h (1 Bft) 0,00 %
27.08.2015 16:52 29,9 C 30 % 1013,2 hPa 0,0 l/m 4,0 km/h (1 Bft) NO 41 0 min 0,000 mm 1,0 UV-I 189 W/m 10,4 C 29,9 C 7,9 km/h (2 Bft) 0,00 %
27.08.2015 16:57 29,8 C 28 % 1013,1 hPa 0,0 l/m 4,0 km/h (1 Bft) SO 134 0 min 0,000 mm 1,0 UV-I 197 W/m 9,3 C 29,8 C 4,0 km/h (1 Bft) 0,00 %
27.08.2015 17:02 29,9 C 29 % 1013,1 hPa 0,0 l/m 6,5 km/h (2 Bft) O 80 0 min 0,000 mm 1,0 UV-I 208 W/m 9,9 C 29,9 C 7,9 km/h (2 Bft) 0,00 %
27.08.2015 17:07 30,0 C 30 % 1013,0 hPa 0,0 l/m 0,7 km/h (0 Bft) NO 37 0 min 0,000 mm 1,0 UV-I 229 W/m 10,5 C 30,0 C 4,0 km/h (1 Bft) 0,00 %
27.08.2015 17:12 29,9 C 29 % 1013,1 hPa 0,0 l/m 0,0 km/h (0 Bft) NO 44 5 min 0,000 mm 1,0 UV-I 765 W/m 9,9 C 29,9 C 0,0 km/h (0 Bft) 0,00 %
27.08.2015 17:17 30,1 C 29 % 1013,0 hPa 0,0 l/m 5,8 km/h (2 Bft) O-NO 58 5 min 0,000 mm 1,0 UV-I 642 W/m 10,1 C 30,1 C 11,9 km/h (2 Bft) 0,00 %
27.08.2015 17:22 30,3 C 28 % 1012,9 hPa 0,0 l/m 2,2 km/h (1 Bft) SO 142 5 min 0,000 mm 1,0 UV-I 643 W/m 9,7 C 30,3 C 4,0 km/h (1 Bft) 0,00 %
27.08.2015 17:27 30,4 C 29 % 1012,9 hPa 0,0 l/m 10,4 km/h (2 Bft) SO 138 5 min 0,000 mm 1,0 UV-I 680 W/m 10,3 C 30,1 C 11,9 km/h (2 Bft) 0,00 %
27.08.2015 17:32 30,4 C 29 % 1012,8 hPa 0,0 l/m 3,2 km/h (1 Bft) O-SO 111 5 min 0,000 mm 1,0 UV-I 621 W/m 10,3 C 30,4 C 7,9 km/h (2 Bft) 0,00 %
27.08.2015 17:37 30,4 C 29 % 1012,7 hPa 0,0 l/m 4,3 km/h (1 Bft) O 97 5 min 0,000 mm 1,0 UV-I 626 W/m 10,3 C 30,4 C 7,9 km/h (2 Bft) 0,00 %
27.08.2015 17:42 30,2 C 29 % 1012,7 hPa 0,0 l/m 6,5 km/h (2 Bft) O-SO 110 5 min 0,000 mm 1,0 UV-I 639 W/m 10,2 C 30,2 C 11,9 km/h (2 Bft) 0,00 %
27.08.2015 17:47 30,1 C 28 % 1012,8 hPa 0,0 l/m 6,5 km/h (2 Bft) O-SO 108 5 min 0,000 mm 1,0 UV-I 714 W/m 9,6 C 30,1 C 7,9 km/h (2 Bft) 0,00 %
27.08.2015 17:52 30,1 C 29 % 1012,7 hPa 0,0 l/m 0,7 km/h (0 Bft) NO 51 5 min 0,000 mm 1,0 UV-I 714 W/m 10,1 C 30,1 C 4,0 km/h (1 Bft) 0,00 %
27.08.2015 17:57 30,2 C 28 % 1012,7 hPa 0,0 l/m 4,0 km/h (1 Bft) SO 136 5 min 0,000 mm 1,0 UV-I 483 W/m 9,6 C 30,2 C 7,9 km/h (2 Bft) 0,00 %
27.08.2015 18:02 30,2 C 30 % 1012,8 hPa 0,0 l/m 9,4 km/h (2 Bft) O 82 5 min 0,000 mm 1,0 UV-I 450 W/m 10,7 C 30,0 C 15,8 km/h (3 Bft) 0,00 %
27.08.2015 18:07 29,9 C 30 % 1012,8 hPa 0,0 l/m 9,7 km/h (2 Bft) SO 131 5 min 0,000 mm 1,0 UV-I 347 W/m 10,4 C 29,6 C 15,8 km/h (3 Bft) 0,00 %
27.08.2015 18:12 29,6 C 31 % 1012,9 hPa 0,0 l/m 5,8 km/h (2 Bft) O-NO 76 5 min 0,000 mm 1,0 UV-I 444 W/m 10,7 C 29,6 C 7,9 km/h (2 Bft) 0,00 %
27.08.2015 18:17 29,4 C 31 % 1012,7 hPa 0,0 l/m 2,2 km/h (1 Bft) O-SO 121 5 min 0,000 mm 1,0 UV-I 418 W/m 10,5 C 29,4 C 7,9 km/h (2 Bft) 0,00 %
27.08.2015 18:22 29,2 C 32 % 1012,7 hPa 0,0 l/m 4,0 km/h (1 Bft) NO 50 5 min 0,000 mm 1,0 UV-I 435 W/m 10,8 C 29,2 C 7,9 km/h (2 Bft) 0,00 %
27.08.2015 18:27 29,1 C 31 % 1012,7 hPa 0,0 l/m 1,8 km/h (1 Bft) S-SW 198 5 min 0,000 mm 1,0 UV-I 328 W/m 10,2 C 29,1 C 4,0 km/h (1 Bft) 0,00 %
27.08.2015 18:32 28,9 C 31 % 1012,9 hPa 0,0 l/m 1,8 km/h (1 Bft) O-SO 104 5 min 0,000 mm 1,0 UV-I 317 W/m 10,1 C 28,9 C 4,0 km/h (1 Bft) 0,00 %
27.08.2015 18:37 28,8 C 31 % 1012,8 hPa 0,0 l/m 1,8 km/h (1 Bft) SO 132 5 min 0,000 mm 1,0 UV-I 304 W/m 10,0 C 28,8 C 7,9 km/h (2 Bft) 0,00 %
27.08.2015 18:42 28,6 C 32 % 1012,8 hPa 0,0 l/m 9,7 km/h (2 Bft) NO 50 5 min 0,000 mm 1,0 UV-I 304 W/m 10,3 C 28,2 C 11,9 km/h (2 Bft) 0,00 %
27.08.2015 18:47 28,4 C 32 % 1012,9 hPa 0,0 l/m 0,4 km/h (0 Bft) NO 39 5 min 0,000 mm 0,0 UV-I 422 W/m 10,1 C 28,4 C 4,0 km/h (1 Bft) 0,00 %
27.08.2015 18:52 28,4 C 32 % 1012,7 hPa 0,0 l/m 0,4 km/h (0 Bft) O-NO 64 5 min 0,000 mm 0,0 UV-I 432 W/m 10,1 C 28,4 C 4,0 km/h (1 Bft) 0,00 %
27.08.2015 18:57 28,3 C 33 % 1012,9 hPa 0,0 l/m 0,0 km/h (0 Bft) NO 47 5 min 0,000 mm 0,0 UV-I 283 W/m 10,5 C 28,3 C 0,0 km/h (0 Bft) 0,00 %
27.08.2015 19:02 28,3 C 33 % 1012,9 hPa 0,0 l/m 0,0 km/h (0 Bft) O-NO 65 5 min 0,000 mm 0,0 UV-I 237 W/m 10,5 C 28,3 C 0,0 km/h (0 Bft) 0,00 %
27.08.2015 19:07 28,2 C 34 % 1012,6 hPa 0,0 l/m 0,0 km/h (0 Bft) O 94 5 min 0,000 mm 0,0 UV-I 225 W/m 10,8 C 28,2 C 0,0 km/h (0 Bft) 0,00 %
27.08.2015 19:12 28,0 C 38 % 1012,5 hPa 0,0 l/m 2,2 km/h (1 Bft) N-NO 12 5 min 0,000 mm 0,0 UV-I 204 W/m 12,3 C 28,0 C 4,0 km/h (1 Bft) 0,00 %
27.08.2015 19:17 27,8 C 39 % 1012,7 hPa 0,0 l/m 4,0 km/h (1 Bft) S-SO 150 5 min 0,000 mm 0,0 UV-I 97 W/m 12,6 C 27,8 C 4,0 km/h (1 Bft) 0,00 %
27.08.2015 19:22 27,5 C 40 % 1012,8 hPa 0,0 l/m 0,0 km/h (0 Bft) NO 43 5 min 0,000 mm 0,0 UV-I 71 W/m 12,7 C 27,5 C 0,0 km/h (0 Bft) 0,00 %
27.08.2015 19:27 27,2 C 39 % 1012,8 hPa 0,0 l/m 1,4 km/h (1 Bft) O 83 5 min 0,000 mm 0,0 UV-I 63 W/m 12,0 C 27,2 C 4,0 km/h (1 Bft) 0,00 %
27.08.2015 19:32 26,9 C 40 % 1012,8 hPa 0,0 l/m 3,2 km/h (1 Bft) O 82 5 min 0,000 mm 0,0 UV-I 43 W/m 12,1 C 26,9 C 7,9 km/h (2 Bft) 0,00 %
27.08.2015 19:37 26,6 C 40 % 1012,8 hPa 0,0 l/m 1,4 km/h (1 Bft) O 81 5 min 0,000 mm 0,0 UV-I 31 W/m 11,9 C 26,6 C 4,0 km/h (1 Bft) 0,00 %
27.08.2015 19:42 26,3 C 40 % 1012,6 hPa 0,0 l/m 0,0 km/h (0 Bft) NO 51 5 min 0,000 mm 0,0 UV-I 22 W/m 11,6 C 26,3 C 0,0 km/h (0 Bft) 0,00 %
27.08.2015 19:47 26,1 C 42 % 1012,7 hPa 0,0 l/m 5,4 km/h (1 Bft) O 99 0 min 0,000 mm 0,0 UV-I 9 W/m 12,2 C 26,1 C 7,9 km/h (2 Bft) 0,00 %
27.08.2015 19:52 25,9 C 42 % 1012,9 hPa 0,0 l/m 0,0 km/h (0 Bft) N-NO 25 0 min 0,000 mm 0,0 UV-I 0 W/m 12,0 C 25,9 C 0,0 km/h (0 Bft) 0,00 %
27.08.2015 19:57 25,7 C 42 % 1012,8 hPa 0,0 l/m 0,0 km/h (0 Bft) NO 41 0 min 0,000 mm 0,0 UV-I 0 W/m 11,8 C 25,7 C 0,0 km/h (0 Bft) 0,00 %
27.08.2015 20:02 25,5 C 43 % 1012,8 hPa 0,0 l/m 0,0 km/h (0 Bft) NO 38 0 min 0,000 mm 0,0 UV-I 0 W/m 12,0 C 25,5 C 0,0 km/h (0 Bft) 0,00 %
27.08.2015 20:07 25,1 C 44 % 1012,7 hPa 0,0 l/m 0,0 km/h (0 Bft) O-NO 62 0 min 0,000 mm 0,0 UV-I 0 W/m 12,0 C 25,1 C 0,0 km/h (0 Bft) 0,00 %
27.08.2015 20:12 24,7 C 45 % 1013,1 hPa 0,0 l/m 0,0 km/h (0 Bft) O 91 0 min 0,000 mm 0,0 UV-I 0 W/m 12,0 C 24,7 C 0,0 km/h (0 Bft) 0,00 %
27.08.2015 20:17 24,3 C 46 % 1013,1 hPa 0,0 l/m 0,0 km/h (0 Bft) O 90 0 min 0,000 mm 0,0 UV-I 0 W/m 11,9 C 24,3 C 0,0 km/h (0 Bft) 0,00 %
27.08.2015 20:22 24,0 C 48 % 1013,2 hPa 0,0 l/m 0,0 km/h (0 Bft) O-NO 65 0 min 0,000 mm 0,0 UV-I 0 W/m 12,3 C 24,0 C 0,0 km/h (0 Bft) 0,00 %
27.08.2015 20:27 23,7 C 49 % 1013,2 hPa 0,0 l/m 0,0 km/h (0 Bft) O-NO 64 0 min 0,000 mm 0,0 UV-I 0 W/m 12,3 C 23,7 C 0,0 km/h (0 Bft) 0,00 %
27.08.2015 20:32 23,4 C 50 % 1013,2 hPa 0,0 l/m 0,0 km/h (0 Bft) NO 52 0 min 0,000 mm 0,0 UV-I 0 W/m 12,4 C 23,4 C 0,0 km/h (0 Bft) 0,00 %
27.08.2015 20:37 23,2 C 51 % 1012,8 hPa 0,0 l/m 0,0 km/h (0 Bft) O-NO 63 0 min 0,000 mm 0,0 UV-I 0 W/m 12,5 C 23,2 C 0,0 km/h (0 Bft) 0,00 %
27.08.2015 20:45 22,8 C 52 % 1012,9 hPa 0,0 l/m 0,0 km/h (0 Bft) O 80 0 min 0,000 mm 0,0 UV-I 0 W/m 12,4 C 22,8 C 0,0 km/h (0 Bft) 0,00 %
27.08.2015 20:50 22,5 C 53 % 1013,2 hPa 0,0 l/m 0,0 km/h (0 Bft) NO 49 0 min 0,000 mm 0,0 UV-I 0 W/m 12,4 C 22,5 C 0,0 km/h (0 Bft) 0,00 %
27.08.2015 20:55 22,3 C 54 % 1013,2 hPa 0,0 l/m 0,0 km/h (0 Bft) NO 46 0 min 0,000 mm 0,0 UV-I 0 W/m 12,5 C 22,3 C 0,0 km/h (0 Bft) 0,00 %
27.08.2015 21:00 22,1 C 55 % 1013,2 hPa 0,0 l/m 0,0 km/h (0 Bft) NO 56 0 min 0,000 mm 0,0 UV-I 0 W/m 12,6 C 22,1 C 0,0 km/h (0 Bft) 0,00 %
27.08.2015 21:05 21,9 C 56 % 1013,1 hPa 0,0 l/m 0,0 km/h (0 Bft) O 84 0 min 0,000 mm 0,0 UV-I 0 W/m 12,7 C 21,9 C 0,0 km/h (0 Bft) 0,00 %
27.08.2015 21:10 21,7 C 58 % 1013,3 hPa 0,0 l/m 0,0 km/h (0 Bft) O-SO 116 0 min 0,000 mm 0,0 UV-I 0 W/m 13,1 C 21,7 C 0,0 km/h (0 Bft) 0,00 %
27.08.2015 21:15 21,6 C 58 % 1012,9 hPa 0,0 l/m 0,0 km/h (0 Bft) O 95 0 min 0,000 mm 0,0 UV-I 0 W/m 13,0 C 21,6 C 0,0 km/h (0 Bft) 0,00 %
27.08.2015 21:20 21,5 C 58 % 1013,0 hPa 0,0 l/m 0,0 km/h (0 Bft) O 90 0 min 0,000 mm 0,0 UV-I 0 W/m 12,9 C 21,5 C 0,0 km/h (0 Bft) 0,00 %
27.08.2015 21:25 21,6 C 58 % 1013,2 hPa 0,0 l/m 0,0 km/h (0 Bft) NO 53 0 min 0,000 mm 0,0 UV-I 0 W/m 13,0 C 21,6 C 0,0 km/h (0 Bft) 0,00 %
27.08.2015 21:30 21,8 C 57 % 1013,0 hPa 0,0 l/m 5,8 km/h (2 Bft) O-SO 121 0 min 0,000 mm 0,0 UV-I 0 W/m 12,9 C 21,8 C 7,9 km/h (2 Bft) 0,00 %
27.08.2015 21:35 22,1 C 56 % 1013,1 hPa 0,0 l/m 4,7 km/h (1 Bft) SO 142 0 min 0,000 mm 0,0 UV-I 0 W/m 12,9 C 22,1 C 7,9 km/h (2 Bft) 0,00 %
27.08.2015 21:40 22,3 C 56 % 1013,2 hPa 0,0 l/m 1,8 km/h (1 Bft) NO 45 0 min 0,000 mm 0,0 UV-I 0 W/m 13,1 C 22,3 C 4,0 km/h (1 Bft) 0,00 %
27.08.2015 21:45 22,4 C 56 % 1013,1 hPa 0,0 l/m 3,2 km/h (1 Bft) O-SO 109 0 min 0,000 mm 0,0 UV-I 0 W/m 13,2 C 22,4 C 4,0 km/h (1 Bft) 0,00 %
27.08.2015 21:50 22,5 C 56 % 1013,0 hPa 0,0 l/m 6,5 km/h (2 Bft) O-SO 123 0 min 0,000 mm 0,0 UV-I 0 W/m 13,3 C 22,5 C 7,9 km/h (2 Bft) 0,00 %
27.08.2015 21:55 22,6 C 56 % 1013,1 hPa 0,0 l/m 4,7 km/h (1 Bft) O-SO 110 0 min 0,000 mm 0,0 UV-I 0 W/m 13,4 C 22,6 C 7,9 km/h (2 Bft) 0,00 %
27.08.2015 22:00 22,6 C 57 % 1013,2 hPa 0,0 l/m 5,4 km/h (1 Bft) O-SO 123 0 min 0,000 mm 0,0 UV-I 0 W/m 13,6 C 22,6 C 7,9 km/h (2 Bft) 0,00 %
27.08.2015 22:05 22,5 C 57 % 1013,2 hPa 0,0 l/m 0,0 km/h (0 Bft) O-SO 107 0 min 0,000 mm 0,0 UV-I 0 W/m 13,5 C 22,5 C 0,0 km/h (0 Bft) 0,00 %
27.08.2015 22:10 22,3 C 57 % 1013,2 hPa 0,0 l/m 0,0 km/h (0 Bft) NO 45 0 min 0,000 mm 0,0 UV-I 0 W/m 13,4 C 22,3 C 0,0 km/h (0 Bft) 0,00 %
27.08.2015 22:15 22,1 C 58 % 1013,2 hPa 0,0 l/m 0,0 km/h (0 Bft) N-NO 30 0 min 0,000 mm 0,0 UV-I 0 W/m 13,4 C 22,1 C 0,0 km/h (0 Bft) 0,00 %
27.08.2015 22:20 21,9 C 59 % 1013,4 hPa 0,0 l/m 0,0 km/h (0 Bft) NO 48 0 min 0,000 mm 0,0 UV-I 0 W/m 13,5 C 21,9 C 0,0 km/h (0 Bft) 0,00 %
27.08.2015 22:25 21,4 C 60 % 1013,3 hPa 0,0 l/m 0,0 km/h (0 Bft) NO 49 0 min 0,000 mm 0,0 UV-I 0 W/m 13,3 C 21,4 C 0,0 km/h (0 Bft) 0,00 %
27.08.2015 22:30 21,0 C 62 % 1013,3 hPa 0,0 l/m 0,0 km/h (0 Bft) O-NO 59 0 min 0,000 mm 0,0 UV-I 0 W/m 13,4 C 21,0 C 0,0 km/h (0 Bft) 0,00 %
27.08.2015 22:35 20,7 C 63 % 1013,4 hPa 0,0 l/m 0,0 km/h (0 Bft) NO 54 0 min 0,000 mm 0,0 UV-I 0 W/m 13,4 C 20,7 C 0,0 km/h (0 Bft) 0,00 %
27.08.2015 22:40 20,3 C 65 % 1013,1 hPa 0,0 l/m 0,0 km/h (0 Bft) NO 46 0 min 0,000 mm 0,0 UV-I 0 W/m 13,5 C 20,3 C 0,0 km/h (0 Bft) 0,00 %
27.08.2015 22:45 19,9 C 66 % 1013,2 hPa 0,0 l/m 0,0 km/h (0 Bft) O-NO 59 0 min 0,000 mm 0,0 UV-I 0 W/m 13,4 C 19,9 C 0,0 km/h (0 Bft) 0,00 %
27.08.2015 22:50 19,6 C 67 % 1013,3 hPa 0,0 l/m 0,0 km/h (0 Bft) NO 50 0 min 0,000 mm 0,0 UV-I 0 W/m 13,3 C 19,6 C 0,0 km/h (0 Bft) 0,00 %
27.08.2015 22:55 19,4 C 67 % 1013,4 hPa 0,0 l/m 0,0 km/h (0 Bft) NO 50 0 min 0,000 mm 0,0 UV-I 0 W/m 13,1 C 19,4 C 0,0 km/h (0 Bft) 0,00 %
27.08.2015 23:00 19,0 C 71 % 1013,3 hPa 0,0 l/m 0,0 km/h (0 Bft) NO 51 0 min 0,000 mm 0,0 UV-I 0 W/m 13,6 C 19,0 C 0,0 km/h (0 Bft) 0,00 %
27.08.2015 23:05 18,7 C 71 % 1013,3 hPa 0,0 l/m 0,0 km/h (0 Bft) NO 52 0 min 0,000 mm 0,0 UV-I 0 W/m 13,3 C 18,7 C 0,0 km/h (0 Bft) 0,00 %
27.08.2015 23:10 18,4 C 72 % 1013,6 hPa 0,0 l/m 0,0 km/h (0 Bft) NO 47 0 min 0,000 mm 0,0 UV-I 0 W/m 13,3 C 18,4 C 0,0 km/h (0 Bft) 0,00 %
27.08.2015 23:15 18,1 C 75 % 1013,6 hPa 0,0 l/m 0,0 km/h (0 Bft) NO 48 0 min 0,000 mm 0,0 UV-I 0 W/m 13,6 C 18,1 C 0,0 km/h (0 Bft) 0,00 %
27.08.2015 23:20 17,9 C 76 % 1013,8 hPa 0,0 l/m 0,0 km/h (0 Bft) N 2 0 min 0,000 mm 0,0 UV-I 0 W/m 13,6 C 17,9 C 0,0 km/h (0 Bft) 0,00 %
27.08.2015 23:25 17,7 C 76 % 1013,6 hPa 0,0 l/m 0,0 km/h (0 Bft) NO 43 0 min 0,000 mm 0,0 UV-I 0 W/m 13,4 C 17,7 C 0,0 km/h (0 Bft) 0,00 %
27.08.2015 23:30 17,5 C 76 % 1013,6 hPa 0,0 l/m 0,0 km/h (0 Bft) NO 47 0 min 0,000 mm 0,0 UV-I 0 W/m 13,2 C 17,5 C 0,0 km/h (0 Bft) 0,00 %
27.08.2015 23:35 17,3 C 77 % 1013,7 hPa 0,0 l/m 0,0 km/h (0 Bft) O-NO 66 0 min 0,000 mm 0,0 UV-I 0 W/m 13,2 C 17,3 C 0,0 km/h (0 Bft) 0,00 %
27.08.2015 23:40 17,2 C 77 % 1013,7 hPa 0,0 l/m 0,0 km/h (0 Bft) NO 44 0 min 0,000 mm 0,0 UV-I 0 W/m 13,1 C 17,2 C 0,0 km/h (0 Bft) 0,00 %
27.08.2015 23:45 17,1 C 78 % 1013,6 hPa 0,0 l/m 0,0 km/h (0 Bft) NO 51 0 min 0,000 mm 0,0 UV-I 0 W/m 13,2 C 17,1 C 0,0 km/h (0 Bft) 0,00 %
27.08.2015 23:50 16,9 C 79 % 1013,6 hPa 0,0 l/m 0,0 km/h (0 Bft) NO 42 0 min 0,000 mm 0,0 UV-I 0 W/m 13,2 C 16,9 C 0,0 km/h (0 Bft) 0,00 %
27.08.2015 23:55 16,8 C 79 % 1013,8 hPa 0,0 l/m 0,0 km/h (0 Bft) NO 50 0 min 0,000 mm 0,0 UV-I 0 W/m 13,1 C 16,8 C 0,0 km/h (0 Bft) 0,00 %
_ Min-Zeit 06:26 15:22 19:12 - 00:01 - - - - - - 13:52 06:26 00:01 00:01
Minimum _ 9,7 C 24 % 1012,5 hPa - 0,0 km/h (0 Bft) - - - - - - 7,6 C 9,7 C 0,0 km/h (0 Bft) 0,00 %
_ Max-Zeit 15:42 06:01 10:31 00:01 15:27 - - 11:37 00:01 12:12 14:12 22:00 15:17 14:37 00:01
Maximum _ 30,7 C 96 % 1017,6 hPa 0,0 l/m 11,9 km/h
SO (2 Bft)
- - 6 min 0,000 mm 4,0 UV-I 908 W/m 13,6 C 30,6 C 15,8 km/h
O-NO (3 Bft)
0,00 %
Durchschnitt _ 21,2 C 56 % 1015,1 hPa #0,0 l/m 1,1 km/h (1 Bft) O-SO - #10:26 h #0,000 mm 2,0 UV-I 478 W/m 10,4 C 21,2 C 2,1 km/h (1 Bft) 0,00 %